This demonstration page uses our WeatherBlox Daily Observations layout. Learn more.

Left ArrowRight Arrow

39.51506, -84.39828

Hourly Observations for May 20, 2021

Temp ( °F °C ) Dew Point ( °F °C ) Humidity (%) Winds ( mph kmh ) Pressure ( in mb ) Visibility ( mi km ) Precip ( " mm )
12:15 am 00:15 Clear 63 17 N/A N/A NE 3 6 30.28 1025 10 16 0.00 0.00
12:35 am 00:35 Clear 63 17 N/A N/A NNE 3 6 30.28 1025 10 16 0.00 0.00
12:55 am 00:55 Clear 61 16 N/A N/A N 5 7 30.28 1026 10 16 0.00 0.00
1:15 am 01:15 Clear 61 16 N/A N/A N 3 6 30.28 1026 10 16 0.00 0.00
1:35 am 01:35 Clear 61 16 N/A N/A NNE 3 6 30.29 1026 7 11 0.00 0.00
1:55 am 01:55 Clear 61 16 N/A N/A NNE 3 6 30.29 1026 7 11 0.00 0.00
2:15 am 02:15 Clear 61 16 N/A N/A NNE 3 6 30.29 1026 7 11 0.00 0.00
2:35 am 02:35 Clear 61 16 N/A N/A NNE 3 6 30.28 1026 10 16 0.00 0.00
2:55 am 02:55 Clear 59 15 N/A N/A NE 3 6 30.29 1026 7 11 0.00 0.00
3:15 am 03:15 Clear 59 15 N/A N/A NNE 3 6 30.29 1026 7 11 0.00 0.00
3:35 am 03:35 Hazy 59 15 N/A N/A NNE 5 7 30.29 1026 5 8 0.00 0.00
3:55 am 03:55 Hazy 59 15 N/A N/A NNE 3 6 30.29 1026 7 11 0.00 0.00
4:15 am 04:15 Hazy 59 15 N/A N/A NNE 5 7 30.29 1026 7 11 0.00 0.00
4:35 am 04:35 Clear 59 15 N/A N/A Calm 30.30 1026 7 11 0.00 0.00
4:55 am 04:55 Clear 59 15 N/A N/A NE 3 6 30.30 1026 10 16 0.00 0.00
5:15 am 05:15 Clear 59 15 N/A N/A ENE 3 6 30.30 1026 7 11 0.00 0.00
5:35 am 05:35 Clear 59 15 N/A N/A NE 3 6 30.31 1026 7 11 0.00 0.00
5:55 am 05:55 Clear 59 15 N/A N/A NNE 3 6 30.31 1026 10 16 0.00 0.00
6:15 am 06:15 Hazy 57 14 N/A N/A Calm 30.32 1027 5 8 0.00 0.00
6:35 am 06:35 Hazy 55 13 N/A N/A Calm 30.33 1027 5 8 0.00 0.00
6:55 am 06:55 Hazy 57 14 N/A N/A NNE 3 6 30.34 1027 4 6 0.00 0.00
7:15 am 07:15 Hazy 57 14 N/A N/A NE 3 6 30.35 1028 5 8 0.00 0.00
7:35 am 07:35 Hazy 59 15 N/A N/A NE 3 6 30.35 1028 5 8 0.00 0.00
7:55 am 07:55 Hazy 61 16 N/A N/A Calm 30.35 1028 7 11 0.00 0.00
8:15 am 08:15 Sunny 63 17 62 16.7 98 98 Calm 30.35 1028 10 16 0.00 0.00
8:35 am 08:35 Sunny 64 17.7 62 16.9 95 95 Calm 30.35 1028 10 16 0.00 0.00
8:55 am 08:55 Sunny 67 19.2 64 17.5 90 90 Calm 30.35 1028 10 16 0.00 0.00
9:15 am 09:15 Sunny 68 20.1 63 17.3 84 84 Calm 30.34 1028 10 16 0.00 0.00
9:35 am 09:35 Sunny 70 21.3 64 17.6 80 80 SW 5 7 30.34 1027 10 16 0.00 0.00
9:55 am 09:55 Sunny 73 22.5 62 16.9 71 71 WSW 6 9 30.34 1027 10 16 0.00 0.00
10:15 am 10:15 Sunny 73 23 62 16.7 68 68 SSW 5 7 30.34 1027 10 16 0.00 0.00
10:35 am 10:35 Sunny 76 24.3 64 17.7 67 67 S 6 9 30.33 1027 10 16 0.00 0.00
10:55 am 10:55 Sunny 77 25 63 17.1 62 62 SW 5 7 30.33 1027 10 16 0.00 0.00
11:15 am 11:15 Sunny 78 25.8 63 17.3 59 59 WSW 5 7 30.33 1027 10 16 0.00 0.00
11:35 am 11:35 Sunny 80 26.4 64 17.5 58 58 SW 6 9 30.33 1027 10 16 0.00 0.00
11:55 am 11:55 Sunny 80 26.8 63 17.4 56 56 S 6 9 30.33 1027 10 16 0.00 0.00
12:15 pm 12:15 Sunny 81 27.2 64 17.5 55 55 SW 6 9 30.33 1027 10 16 0.00 0.00
12:35 pm 12:35 Sunny 81 27.3 64 17.5 55 55 W 5 7 30.33 1027 10 16 0.00 0.00
12:55 pm 12:55 Sunny 81 27.4 62 16.9 53 53 SW 5 7 30.32 1027 10 16 0.00 0.00
1:15 pm 13:15 Sunny 82 27.8 61 16.1 49 49 SW 5 7 30.32 1027 10 16 0.00 0.00
1:35 pm 13:35 Partly Cloudy 82 28 62 16.8 51 51 WNW 3 6 30.31 1026 10 16 0.00 0.00
1:55 pm 13:55 Partly Cloudy 83 28.2 62 16.5 49 49 W 7 11 30.30 1026 10 16 0.00 0.00
2:15 pm 14:15 Partly Cloudy 83 28.1 59 15.1 45 45 Calm 30.29 1026 10 16 0.00 0.00
2:35 pm 14:35 Sunny 84 29 62 16.6 47 47 W 5 7 30.28 1026 10 16 0.00 0.00
2:55 pm 14:55 Sunny 82 27.8 61 16 49 49 SSW 5 7 30.28 1025 10 16 0.00 0.00
3:15 pm 15:15 Mostly Cloudy 84 29 60 15.6 44 44 SSW 6 9 30.27 1025 10 16 0.00 0.00
3:35 pm 15:35 Sunny 83 28.2 59 14.9 44 44 SSE 9 15 30.27 1025 10 16 0.00 0.00
3:55 pm 15:55 Sunny 85 29.3 56 13.1 37 37 SSE 12 19 30.26 1025 10 16 0.00 0.00
4:15 pm 16:15 Sunny 83 28.3 56 13.2 39 39 SSW 7 11 30.26 1025 10 16 0.00 0.00
4:35 pm 16:35 Mostly Cloudy 84 29.1 57 14.1 40 40 SSE 9 15 30.25 1024 10 16 0.00 0.00
4:55 pm 16:55 Sunny 85 29.6 56 13.2 37 37 SSE 8 13 30.24 1024 10 16 0.00 0.00
5:15 pm 17:15 Sunny 85 29.5 58 14.4 40 40 S 7 11 30.24 1024 10 16 0.00 0.00
5:35 pm 17:35 Partly Cloudy 85 29.6 58 14.4 39 39 SSW 9 15 30.25 1024 10 16 0.00 0.00
5:55 pm 17:55 Sunny 84 29 55 13 37 37 SSE 6 9 30.25 1025 10 16 0.00 0.00
6:15 pm 18:15 Partly Cloudy 84 28.9 56 13.3 38 38 SSE 9 15 30.24 1024 10 16 0.00 0.00
6:35 pm 18:35 Sunny 83 28.5 56 13.3 39 39 S 9 15 30.24 1024 10 16 0.00 0.00
6:55 pm 18:55 Sunny 83 28.4 56 13.6 40 40 SSE 7 11 30.25 1024 10 16 0.00 0.00
7:15 pm 19:15 Sunny 82 27.8 56 13.5 41 41 SSE 8 13 30.25 1024 10 16 0.00 0.00
7:35 pm 19:35 Sunny 82 27.8 56 13.5 41 41 S 7 11 30.25 1024 10 16 0.00 0.00
7:55 pm 19:55 Sunny 81 27.2 56 13.3 42 42 S 7 11 30.26 1025 10 16 0.00 0.00
8:15 pm 20:15 Sunny 80 26.8 56 13.2 43 43 S 7 11 30.26 1025 10 16 0.00 0.00
8:35 pm 20:35 Sunny 80 26.4 56 13.4 45 45 S 8 13 30.27 1025 10 16 0.00 0.00
8:55 pm 20:55 Clear 78 25.7 57 13.7 48 48 S 7 11 30.27 1025 10 16 0.00 0.00
9:15 pm 21:15 Clear 78 25.4 56 13.6 48 48 S 6 9 30.27 1025 10 16 0.00 0.00
9:35 pm 21:35 Clear 77 25.1 57 13.8 50 50 S 6 9 30.28 1025 7 11 0.00 0.00
9:55 pm 21:55 Clear 67 19.3 63 17.1 87 87 Calm 30.31 1026 10 16 0.00 0.00
10:15 pm 22:15 Clear 66 19 63 17.1 89 89 N 3 6 30.31 1026 10 16 0.00 0.00
10:35 pm 22:35 Clear 65 18.4 62 16.8 90 90 NNE 3 6 30.32 1027 10 16 0.00 0.00
10:55 pm 22:55 Clear 64 17.8 62 16.7 93 93 Calm 30.32 1027 10 16 0.00 0.00
11:15 pm 23:15 Clear with Mist and Fog 64 17.6 62 16.4 93 93 Calm 30.33 1027 7 11 0.00 0.00
11:35 pm 23:35 Clear 64 17.8 61 16.2 90 90 Calm 30.33 1027 10 16 0.00 0.00
11:55 pm 23:55 Clear 64 17.7 62 16.6 93 93 Calm 30.33 1027 7 11 0.00 0.00

Powered by AerisWeather